Regional Weather Roundup
Issued by NWS

Home | Current Version | Previous Version | Graphics & Text | Print | Product List | Glossary On
Versions: 1 2 3 4 5 6 7 8 9 10 11 12 13 14 15 16 17 18 19 20 21 22 23 24 25 26 27 28 29 30 31 32 33 34 35 36 37 38 39 40 41 42 43 44 45 46 47 48 49 50
000
ASUS43 KMPX 232310
RWRMN
WEATHER ROUNDUP FOR MINNESOTA
NATIONAL WEATHER SERVICE TWIN CITIES/CHANHASSEN MN
500 PM CST THU FEB 23 2017


NOTE: "FAIR" INDICATES FEW OR NO CLOUDS BELOW 12,000 FEET WITH NO
SIGNIFICANT WEATHER AND/OR OBSTRUCTIONS TO VISIBILITY. N/A MEANS
CURRENT SKY AND/OR WEATHER CONDITIONS ARE NOT AVAILABLE.

MNZ060>063-068>070-240000-
   Twin Cities Metro

CITY           SKY/WX    TMP DP  RH WIND       PRES   REMARKS
TWIN CITIES    CLOUDY    32  22  66 N13       29.92R WCI  22
ST PAUL        CLOUDY    32  24  72 N12       29.93R WCI  23
CRYSTAL        CLOUDY    30  20  66 N14       29.91R WCI  19
BLAINE         CLOUDY    32  25  74 N8G16     29.92R WCI  25
LAKEVILLE      FAIR      30  25  80 N10       29.88F WCI  21
EDEN PRAIRIE   CLOUDY    32  22  66 N13       29.89R WCI  22
SOUTH ST PAUL  CLOUDY    33  24  70 N9        29.91R WCI  25
LAKE ELMO      CLOUDY    32  27  80 N7        29.92R WCI  26
$$
MNZ001>005-007-008-013>017-022>024-027-028-240000-
   Northwest Minnesota

CITY           SKY/WX    TMP DP  RH WIND       PRES   REMARKS
BEMIDJI        FAIR      25  16  67 NW10      30.01R WCI  15
HALLOCK        FAIR      25  18  74 N13       30.12R WCI  13
ROSEAU         MOCLDY    23  12  63 NW15      30.07R WCI  10
WARROAD        FAIR      21  10  63 NW17      30.07R WCI   7
THIEF RVR FALL FLURRIES  22  14  71 N16       30.09R WCI   8
CROOKSTON      MOCLDY    25  16  68 N25G31    30.09S WCI   9
FOSSTON        CLOUDY    23  18  80 NW12      30.05R WCI  12
DETROIT LAKES  CLOUDY    27  21  80 N6        30.02R WCI  20
MOORHEAD       CLOUDY    27  19  74 N20G26    30.06R WCI  13
PARK RAPIDS    FAIR      29  17  61 N8        29.97R WCI  21
MAHNOMEN       CLOUDY    25  19  78 N14       30.03R WCI  13
$$
MNZ006-009>011-018-025>026-240000-
   North Central Minnesota

CITY           SKY/WX    TMP DP  RH WIND       PRES   REMARKS
BAUDETTE       FAIR      21   9  59 NW17      30.02R WCI   7
FLAG ISLAND    FAIR      19   9  63 NW18      30.05R WCI   4
INTL FALLS     FAIR      25  10  53 W12       29.99R WCI  14
WASKISH        FAIR      25  14  63 NW9       30.03R WCI  15
BIG FORK       FAIR      27  12  54 NW6       29.98S WCI  20
LONGVILLE      FAIR      27  19  74 CALM      29.98R
GRAND RAPIDS   FAIR      25  18  74 NW10      29.99R WCI  15
CRANE LAKE     FAIR      25  10  54 W6        30.00R WCI  18
ORR            FAIR      25  10  54 NW6       29.96R WCI  18
COOK           FAIR      25  12  58 NW6       29.98R WCI  18
WALKER         FAIR      26  16  66 NW9       29.99R WCI  16
$$
MNZ012-019>021-037-240000-
   Northeast Minnesota

CITY           SKY/WX    TMP DP  RH WIND       PRES   REMARKS
DULUTH         MOCLDY    27  22  81 NW10      29.94R WCI  17
ELY            FAIR      27   9  46 NW7       29.94R WCI  19
HIBBING        FAIR      25  16  68 NW10      29.96R WCI  15
EVELETH        FAIR      27  13  55 N6        29.97R WCI  21
DULUTH HARBOR  MOCLDY    32  25  74 CALM      29.98S
TWO HARBORS    FAIR      32  25  74 NW5       29.93R WCI  27
SILVER BAY     FAIR      30  21  69 NW3       29.92R
GRAND MARAIS     N/A     35  15  44 CALM      29.93R
G MARAIS ARPRT FAIR      27   9  46 W7        29.88R WCI  19
$$
MNZ029>031-032-039>041-046>048-054>057-064-240000-
   West Central Minnesota

CITY           SKY/WX    TMP DP  RH WIND       PRES   REMARKS
FERGUS FALLS   MOCLDY    27  19  74 N16       30.04R WCI  14
WHEATON        MOCLDY    28  23  80 N12       30.03R WCI  18
MORRIS         FAIR      30  25  80 N16       29.96R WCI  19
ALEXANDRIA     FAIR      29  22  75 N14       29.95R WCI  18
ELBOW LAKE     FAIR      29  22  76 NE13      29.98R WCI  18
WADENA         FAIR      27  21  80 N10       29.97R WCI  17
GLENWOOD       FAIR      28  23  80 N14       29.94S WCI  17
APPLETON       MOCLDY    32  25  74 N15       29.95S WCI  22
BENSON         CLOUDY    34  21  60 NE10      29.97R WCI  26
ORTONVILLE     FAIR      30  23  74 N18       29.97R WCI  18
MADISON        MOCLDY    34  27  75 N14       29.94F WCI  24
WILLMAR        FAIR      32  27  80 NE12      29.93F WCI  23
$$
MNZ033>034-036-042>043-049>051-058-059-240000-
   Central Minnesota

CITY           SKY/WX    TMP DP  RH WIND       PRES   REMARKS
ST CLOUD       CLOUDY    29  23  78 N8        29.94R WCI  21
SAUK CENTRE    FAIR      29  22  74 N12       29.94S WCI  20
PAYNESVILLE    CLOUDY    30  24  76 N13       29.94R WCI  20
AITKIN         MOCLDY    28  21  74 N9        29.95S WCI  20
PINE RIVER     FAIR      27  19  74 N8        30.01S WCI  18
BRAINERD       FAIR      27  20  75 N9        29.96F WCI  18
STAPLES        FAIR      27  21  80 N9        29.97R WCI  17
LONG PRAIRIE   FAIR      28  21  74 N10       29.95R WCI  19
LITTLE FALLS   FAIR      30  21  69 N5        29.96R WCI  25
LITCHFIELD     FAIR      30  25  80 N10       29.92S WCI  21
BUFFALO        CLOUDY    30  23  76 N9        29.94R WCI  21
MAPLE LAKE     CLOUDY    31  25  80 N12       29.94R WCI  21
HUTCHINSON     MOCLDY    31  25  80 N10G17    29.91F WCI  22
$$
MNZ037-044-045-052-053-240000-
   East Central Minnesota

CITY           SKY/WX    TMP DP  RH WIND       PRES   REMARKS
PRINCETON      FAIR      30  25  80 N7        29.95R WCI  23
MORA           MOCLDY    30  23  74 N5        29.96S WCI  25
CAMBRIDGE      FAIR      30  21  69 N8        29.93R WCI  23
RUSH CITY      FAIR      30  23  74 N9        29.94S WCI  22
MOOSE LAKE     CLOUDY    28  23  80 N7        29.94F WCI  21
HINCKLEY       CLOUDY    30  27  86 N8        29.94F WCI  23
CLOQUET        CLOUDY    27  21  80 NW13      29.95S WCI  16
MCGREGOR       MOCLDY    28  23  80 N9        29.96F WCI  20
$$
MNZ071>073-080-081-089-090-097-098-240000-
   Southwest Minnesota

CITY           SKY/WX    TMP DP  RH WIND       PRES   REMARKS
MONTEVIDEO     MOCLDY    30  27  86 NE14      29.95S WCI  20
GRANITE FALLS  CLOUDY    32  27  81 N14G20    29.93S WCI  22
CANBY          CLOUDY    31  26  82 N13G20    29.94S WCI  21
MARSHALL       CLOUDY    30  26  85 N16       29.91  WCI  19
REDWOOD FALLS  CLOUDY    31  22  69 N10G18    29.90F WCI  22
OLIVIA         FAIR      32  28  86 N14       29.90F WCI  22
PIPESTONE      LGT SNOW  28  25  86 NE20      29.82F VSB 1   WCI  15
WINDOM         FLURRIES  30  27  86 N22G28    29.83S WCI  17
WORTHINGTON    LGT SNOW  29  27  92 N18G28    29.80F FOG     WCI  16
JACKSON        LGT SNOW  32  28  86 NE23      29.80F WCI  19
TRACY          CLOUDY    31  28  88 N20       29.88F WCI  19
SLAYTON        LGT SNOW  28  26  94 N16G23    29.85S VSB 3/4 WCI  16
$$
MNZ065>067-074>077-082>085-091>093-240000-
   South Central Minnesota

CITY           SKY/WX    TMP DP  RH WIND       PRES   REMARKS
MANKATO        FLURRIES  32  25  75 N17       29.87  WCI  21
NEW ULM        MOCLDY    30  23  74 NE13      29.88R WCI  20
ST JAMES       CLOUDY    30  27  86 N15       29.87R WCI  19
FAIRMONT       FLURRIES  33  28  81 N18       29.82R WCI  22
GLENCOE        CLOUDY    31  27  84 N10       29.90S WCI  22
FARIBAULT      CLOUDY    34  27  75 N13G18    29.86F WCI  25
OWATONNA       MOCLDY    36  27  69 N17G25    29.82F
WASECA         CLOUDY    34  28  80 N18G25    29.85S WCI  23
ALBERT LEA     FLURRIES  36  30  80 N16G23    29.80S
$$
MNZ078>079-086>088-094>096-240000-
   Southeast Minnesota

CITY           SKY/WX    TMP DP  RH WIND       PRES   REMARKS
ROCHESTER      CLOUDY    36  29  75 N15       29.81R
RED WING       CLOUDY    37  25  60 N5        29.88R
STANTON        CLOUDY    34  28  77 N15       29.86S WCI  24
DODGE CENTER   FAIR      36  28  75 N17G25    29.79F
WINONA         CLOUDY    41  30  65 NE9       29.83R
AUSTIN         CLOUDY    37  30  75 NE12      29.79F
PRESTON        CLOUDY    38  29  72 NE14      29.79F
$$
ABBREVIATIONS USED IN REMARKS
   TC - TEMPERATURES IN CELSIUS
  WCI - WIND CHILL INDEX
   HX - HEAT INDEX
  VSB - VISIBILITY
$$




USA.gov is the U.S. government's official web portal to all federal, state and local government web resources and services.